CZ-6A DEB, 56608

Orbit data source: Space-Track

CZ-6A DEB, 56608 is space debris in SSO originally from a launch on Fri, 11 Nov 2022 UTC launched from the Taiyaun Space Center, China (TSC). Debris objects in space refer to the collection of defunct objects orbiting the Earth. Examples of debris include non-operational satellites, rocket bodies, and fragments generated from explosions, collisions, or faulty payload assembly.

Loading next visibility...
Identifier
56608, 2022-151AEG
Orbit
SSO
Country
Flag of CNCN / PRC
Related business
Manufacturer
SAST
Mission
Spacecraft
Bus & Motor
Unknown
Mass
Unknown
Launch date (UTC)
2022-11-11 (4 years ago)
Launch vehicle
Unknown
Launch site
Taiyaun Space Center, China (TSC)
Object type
Payload
Rocket body
Debris
Shape & HBR
Unknown shape, 0.1 m
Radar Cross Section
Medium (>0.1 m² and <1 m²)

Expand to show TLE details & history
Last TLE update: 4 hours ago

TLE from 4 hours ago
0 CZ-6A DEB
1 56608U 22151AEG 26236.52558854  .00001205  00000-0  62424-3 0  9996
2 56608  98.8916 260.0629 0033783 124.5981 235.8388 14.16486431172248
Epoch: 2026-08-24T12:36Z
TLE epoch observation values (Epoch: 2026-08-24T12:36:50.849Z)
Latitude
0.00002°
Longitude
98.04499°
Altitude
853.91 km
Speed
7.419 km/s
True Right ascension
17h 20m 15s
True Declination
0° 00' 00"
Sunlit
Object was in daylight at epoch
Visualization orbit readout
Latitude
Unknown
Longitude
Unknown
Altitude
Unknown
Speed
Unknown
Apparent Right ascension
Unknown
Apparent Declination
Unknown
Sunlit
N/A
Visualization observer readout
Local Sidereal Time
08:06:30
Azimuth
Unknown
Elevation
Unknown
Doppler factor
Unknown
Orbital elements
Apogee altitude
858.798 km
Perigee altitude
810.066 km
Semi-major axis
7,212.569 km
Eccentricity
0.00338
Inclination
98.8916°
RAAN
260.0629°
Arg. of periapsis
124.5981°
True anomaly
235.51923°
Mean anomaly
235.8388°
Eccentric anomaly
235.67894°
Mean motion
3.5433 °/min
Orbital period
101.6 mins
BSTAR
0.00062424
Loading maneuver chart data...
Computing Atmospheric mass density...
Loading historical data...
Loading historical data...
Loading historical data...
Loading historical data...
Loading historical data...
Loading historical data...
Loading historical data...

Documentation

Showing up to 5 results
|